Change the Weather History Date:

Tuesday, July 30, 2013

  Actual Average Record
Temperature  
Mean Temperature 64 °F 66 °F  
Max Temperature 80 °F 80 °F 92 °F (1943)
Min Temperature 48 °F 52 °F 40 °F (1913)
Degree Days  
Heating Degree Days 1 1  
Month to date heating degree days 9 35  
Since 1 July heating degree days 9 35  
Cooling Degree Days 0 2  
Month to date cooling degree days 74 60  
Year to date cooling degree days 124 77  
Growing Degree Days 14 (Base 50)    
Moisture  
Dew Point 46 °F    
Average Humidity 60    
Maximum Humidity 93    
Minimum Humidity 27    
Precipitation  
Precipitation 0.00 in 0.12 in 1.33 in (2010)
Month to date precipitation 7.56 2.49  
Year to date precipitation 12.82 10.96  
Snow  
Snow 0.00 in 0.00 in 0.00 in (2002)
Month to date snowfall 0.0 0.0  
Since 1 July snowfall 0.0 0.0  
Snow Depth 0.00 in    
Sea Level Pressure  
Sea Level Pressure 30.16 in    
Wind  
Wind Speed 4 mph (SSW)    
Max Wind Speed 10 mph    
Max Gust Speed 17 mph    
Visibility 10 miles    
Events      
T = Trace of Precipitation, MM = Missing Value Source: NWS Daily Summary

Daily Weather History Graph

Daily Weather History Graph

Search for Another Location

Airport or City:

Trip Planner

Search our weather history database for the weather conditions in past years. The results will help you decide how hot, cold, wet, or windy it might be!

Date:

Astronomy

Jul. 30, 2013 Rise Set
Actual Time 5:34 AM MST 7:31 PM MST
Civil Twilight 5:06 AM MST 7:59 PM MST
Nautical Twilight 4:32 AM MST 8:32 PM MST
Astronomical Twilight 3:56 AM MST 9:09 PM MST
Moon No Moon Rise 1:55 PM MST (7/30)
Length of Visible Light 14h 52m
Length of Day
13h 56m
Last Quarter, 40% of the Moon is Illuminated
Jul 30
Last Quarter
Aug 6
New
Aug 14
First Quarter
Aug 20
Full
Aug 28
Last Quarter

Hourly Weather History & Observations

Time (MST) Temp. Dew Point Humidity Pressure Visibility Wind Dir Wind Speed Gust Speed Precip Events Conditions
12:57 AM 52.0 °F 48.0 °F 86% 30.14 in 10.0 mi Calm Calm - N/A   Clear
1:57 AM 50.0 °F 46.0 °F 86% 30.15 in 10.0 mi Calm Calm - N/A   Clear
2:57 AM 48.9 °F 46.0 °F 90% 30.15 in 10.0 mi Calm Calm - N/A   Clear
3:57 AM 48.9 °F 46.0 °F 90% 30.14 in 10.0 mi Calm Calm - N/A   Clear
4:57 AM 48.9 °F 45.0 °F 86% 30.16 in 10.0 mi Calm Calm - N/A   Clear
5:57 AM 48.0 °F 45.0 °F 89% 30.18 in 10.0 mi Calm Calm - N/A   Clear
6:57 AM 57.0 °F 50.0 °F 77% 30.18 in 10.0 mi Calm Calm - N/A   Clear
7:57 AM 66.9 °F 52.0 °F 59% 30.17 in 10.0 mi Calm Calm - N/A   Clear
8:57 AM 70.0 °F 46.0 °F 42% 30.19 in 10.0 mi SSW 6.9 mph - N/A   Clear
9:57 AM 72.0 °F 46.9 °F 41% 30.20 in 10.0 mi SSW 10.4 mph - N/A   Clear
10:57 AM 73.9 °F 46.0 °F 37% 30.21 in 10.0 mi SW 6.9 mph - N/A   Clear
11:57 AM 75.9 °F 44.1 °F 32% 30.19 in 10.0 mi SSW 9.2 mph - N/A   Clear
12:57 PM 77.0 °F 43.0 °F 30% 30.17 in 10.0 mi SE 8.1 mph 17.3 mph N/A   Clear
1:57 PM 78.1 °F 42.1 °F 28% 30.18 in 10.0 mi South 10.4 mph - N/A   Partly Cloudy
2:57 PM 78.1 °F 43.0 °F 29% 30.17 in 10.0 mi Variable 5.8 mph - N/A   Scattered Clouds
3:57 PM 79.0 °F 41.0 °F 26% 30.15 in 10.0 mi WSW 8.1 mph - N/A   Clear
4:57 PM 78.1 °F 44.1 °F 30% 30.14 in 10.0 mi SW 9.2 mph - N/A   Mostly Cloudy
5:57 PM 75.0 °F 44.1 °F 33% 30.15 in 10.0 mi WSW 6.9 mph - N/A   Clear
6:57 PM 73.0 °F 48.9 °F 42% 30.13 in 10.0 mi SW 4.6 mph - N/A   Clear
7:57 PM 64.9 °F 51.1 °F 61% 30.13 in 10.0 mi Calm Calm - N/A   Clear
8:57 PM 62.1 °F 50.0 °F 65% 30.15 in 10.0 mi Calm Calm - N/A   Clear
9:57 PM 60.1 °F 50.0 °F 69% 30.16 in 10.0 mi Calm Calm - N/A   Clear